Time,TemperatureF,DewpointF,PressureIn,WindDirection,WindDirectionDegrees,WindSpeedMPH,WindSpeedGustMPH,Humidity,HourlyPrecipIn,Conditions,Clouds,dailyrainin,SoftwareType,DateUTC
2013-08-21 00:01:00,55.5,54.4,29.99,West,281,0.0,0.0,96,0.00,,---,0.00,VWS V13.01,2013-08-21 04:01:00,
2013-08-21 00:02:00,55.5,54.4,29.99,West,281,0.0,0.0,96,0.00,,---,0.00,VWS V13.01,2013-08-21 04:02:00,
2013-08-21 00:07:00,55.6,54.8,29.99,West,280,0.0,0.0,97,0.00,,---,0.00,VWS V13.01,2013-08-21 04:07:00,
2013-08-21 00:12:00,55.7,54.9,29.99,West,281,0.0,0.0,97,0.00,,---,0.00,VWS V13.01,2013-08-21 04:12:00,
2013-08-21 00:17:00,55.5,54.7,29.99,West,280,0.0,0.0,97,0.00,,---,0.00,VWS V13.01,2013-08-21 04:17:00,
2013-08-21 00:22:00,55.2,54.1,29.99,West,281,0.0,0.0,96,0.00,,---,0.00,VWS V13.01,2013-08-21 04:22:00,
2013-08-21 00:27:00,55.1,54.3,29.99,West,280,0.0,0.0,97,0.00,,---,0.00,VWS V13.01,2013-08-21 04:27:00,
2013-08-21 00:32:00,54.9,54.1,29.99,West,281,0.0,0.0,97,0.00,,---,0.00,VWS V13.01,2013-08-21 04:32:00,
2013-08-21 00:37:00,55.0,54.2,29.99,West,281,0.0,0.0,97,0.00,,---,0.00,VWS V13.01,2013-08-21 04:37:00,
2013-08-21 00:42:00,55.1,54.3,29.99,West,281,0.0,0.0,97,0.00,,---,0.00,VWS V13.01,2013-08-21 04:42:00,
2013-08-21 00:47:00,55.0,54.2,29.99,West,281,0.0,0.0,97,0.00,,---,0.00,VWS V13.01,2013-08-21 04:47:00,
2013-08-21 00:52:00,55.0,54.2,29.99,West,281,0.0,0.0,97,0.00,,---,0.00,VWS V13.01,2013-08-21 04:52:00,
2013-08-21 00:57:00,55.0,54.2,29.99,West,281,0.0,0.0,97,0.00,,---,0.00,VWS V13.01,2013-08-21 04:57:00,
2013-08-21 01:02:00,55.0,54.2,29.99,West,281,0.0,0.0,97,0.00,,---,0.00,VWS V13.01,2013-08-21 05:02:00,
2013-08-21 01:07:00,55.0,54.2,29.99,West,281,0.0,0.0,97,0.00,,---,0.00,VWS V13.01,2013-08-21 05:07:00,
2013-08-21 01:12:00,54.6,53.8,29.99,West,281,0.0,0.0,97,0.00,,---,0.00,VWS V13.01,2013-08-21 05:12:00,
2013-08-21 01:17:00,54.5,53.7,29.99,West,280,0.0,0.0,97,0.00,,---,0.00,VWS V13.01,2013-08-21 05:17:00,
2013-08-21 01:22:00,54.6,53.8,29.99,West,281,0.0,0.0,97,0.00,,---,0.00,VWS V13.01,2013-08-21 05:22:00,
2013-08-21 01:28:00,54.9,54.1,29.99,West,281,0.0,0.0,97,0.00,,---,0.00,VWS V13.01,2013-08-21 05:28:00,
2013-08-21 01:33:00,55.2,54.7,29.99,West,280,0.0,0.0,98,0.00,,---,0.00,VWS V13.01,2013-08-21 05:33:00,
2013-08-21 01:38:00,55.1,54.3,29.99,West,281,0.0,0.0,97,0.00,,---,0.00,VWS V13.01,2013-08-21 05:38:00,
2013-08-21 01:43:00,55.0,54.2,29.99,West,280,0.0,0.0,97,0.00,,---,0.00,VWS V13.01,2013-08-21 05:43:00,
2013-08-21 01:48:00,54.8,54.0,29.99,West,280,0.0,0.0,97,0.00,,---,0.00,VWS V13.01,2013-08-21 05:48:00,
2013-08-21 01:53:00,54.6,53.8,29.99,West,281,0.0,0.0,97,0.00,,---,0.00,VWS V13.01,2013-08-21 05:53:00,
2013-08-21 01:58:00,54.4,53.6,29.99,West,281,0.0,0.0,97,0.00,,---,0.00,VWS V13.01,2013-08-21 05:58:00,
2013-08-21 02:03:00,54.3,53.5,29.99,West,280,0.0,0.0,97,0.00,,---,0.00,VWS V13.01,2013-08-21 06:03:00,
2013-08-21 02:08:00,54.2,53.7,29.99,West,281,0.0,0.0,98,0.00,,---,0.00,VWS V13.01,2013-08-21 06:08:00,
2013-08-21 02:13:00,54.1,53.5,29.99,West,281,0.0,0.0,98,0.00,,---,0.00,VWS V13.01,2013-08-21 06:13:00,
2013-08-21 02:18:00,54.1,53.5,29.99,West,281,0.0,0.0,98,0.00,,---,0.00,VWS V13.01,2013-08-21 06:18:00,
2013-08-21 02:23:00,54.4,53.8,30.00,West,281,0.0,0.0,98,0.00,,---,0.00,VWS V13.01,2013-08-21 06:23:00,
2013-08-21 02:28:00,54.7,54.2,29.99,West,281,0.0,0.0,98,0.00,,---,0.00,VWS V13.01,2013-08-21 06:28:00,
2013-08-21 02:33:00,54.9,54.3,29.99,West,281,0.0,0.0,98,0.00,,---,0.00,VWS V13.01,2013-08-21 06:33:00,
2013-08-21 02:38:00,55.1,54.5,30.00,West,280,0.0,0.0,98,0.00,,---,0.00,VWS V13.01,2013-08-21 06:38:00,
2013-08-21 02:43:00,55.4,54.8,30.00,West,281,0.0,0.0,98,0.00,,---,0.00,VWS V13.01,2013-08-21 06:43:00,
2013-08-21 02:48:00,55.5,55.0,30.00,West,280,0.0,0.0,98,0.00,,---,0.00,VWS V13.01,2013-08-21 06:48:00,
2013-08-21 02:53:00,55.5,55.0,29.99,West,281,0.0,0.0,98,0.00,,---,0.00,VWS V13.01,2013-08-21 06:53:00,
2013-08-21 02:58:00,55.5,55.0,30.00,West,280,0.0,0.0,98,0.00,,---,0.00,VWS V13.01,2013-08-21 06:58:00,
2013-08-21 03:03:00,55.5,55.0,30.00,West,281,0.0,0.0,98,0.00,,---,0.00,VWS V13.01,2013-08-21 07:03:00,
2013-08-21 03:08:00,55.6,55.0,30.00,West,280,0.0,0.0,98,0.00,,---,0.00,VWS V13.01,2013-08-21 07:08:00,
2013-08-21 03:13:00,55.5,55.0,30.00,West,281,0.0,0.0,98,0.00,,---,0.00,VWS V13.01,2013-08-21 07:13:00,
2013-08-21 03:19:00,55.5,55.0,30.00,West,280,0.0,0.0,98,0.00,,---,0.00,VWS V13.01,2013-08-21 07:19:00,
2013-08-21 03:24:00,55.6,55.0,29.99,West,281,0.0,0.0,98,0.00,,---,0.00,VWS V13.01,2013-08-21 07:24:00,
2013-08-21 03:29:00,55.7,55.2,30.00,West,280,0.0,0.0,98,0.00,,---,0.00,VWS V13.01,2013-08-21 07:29:00,
2013-08-21 03:34:00,55.8,55.2,30.00,West,280,0.0,0.0,98,0.00,,---,0.00,VWS V13.01,2013-08-21 07:34:00,
2013-08-21 03:39:00,55.8,55.2,30.00,West,280,0.0,0.0,98,0.00,,---,0.00,VWS V13.01,2013-08-21 07:39:00,
2013-08-21 03:44:00,55.7,55.2,30.00,West,281,0.0,0.0,98,0.00,,---,0.00,VWS V13.01,2013-08-21 07:44:00,
2013-08-21 03:49:00,55.7,55.2,30.00,West,280,0.0,0.0,98,0.00,,---,0.00,VWS V13.01,2013-08-21 07:49:00,
2013-08-21 03:54:00,55.8,55.2,30.00,West,281,0.0,0.0,98,0.00,,---,0.00,VWS V13.01,2013-08-21 07:54:00,
2013-08-21 03:59:00,55.9,55.3,30.00,West,281,0.0,0.0,98,0.00,,---,0.00,VWS V13.01,2013-08-21 07:59:00,
2013-08-21 04:04:00,55.9,55.3,30.00,West,281,0.0,0.0,98,0.00,,---,0.00,VWS V13.01,2013-08-21 08:04:00,
2013-08-21 04:09:00,56.1,55.5,30.00,West,280,0.0,0.0,98,0.00,,---,0.00,VWS V13.01,2013-08-21 08:09:00,
2013-08-21 04:14:00,56.3,55.8,30.00,West,281,0.0,0.0,98,0.00,,---,0.00,VWS V13.01,2013-08-21 08:14:00,
2013-08-21 04:19:00,56.3,55.8,30.00,West,280,0.0,1.0,98,0.00,,---,0.00,VWS V13.01,2013-08-21 08:19:00,
2013-08-21 04:24:00,56.2,55.7,30.00,West,280,0.0,1.0,98,0.00,,---,0.00,VWS V13.01,2013-08-21 08:24:00,
2013-08-21 04:29:00,56.2,55.7,29.99,West,281,0.0,1.0,98,0.00,,---,0.00,VWS V13.01,2013-08-21 08:29:00,
2013-08-21 04:34:00,56.2,55.7,29.99,West,281,0.0,0.0,98,0.00,,---,0.00,VWS V13.01,2013-08-21 08:34:00,
2013-08-21 04:39:00,56.2,55.9,29.99,West,281,0.0,0.0,99,0.00,,---,0.00,VWS V13.01,2013-08-21 08:39:00,
2013-08-21 04:44:00,56.0,55.5,30.00,West,280,0.0,0.0,98,0.00,,---,0.00,VWS V13.01,2013-08-21 08:44:00,
2013-08-21 04:49:00,55.9,55.3,29.99,West,281,0.0,1.0,98,0.00,,---,0.00,VWS V13.01,2013-08-21 08:49:00,
2013-08-21 04:54:00,55.9,55.3,29.99,West,280,0.0,1.0,98,0.00,,---,0.00,VWS V13.01,2013-08-21 08:54:00,
2013-08-21 04:59:00,55.8,55.2,29.99,West,281,0.0,1.0,98,0.00,,---,0.00,VWS V13.01,2013-08-21 08:59:00,
2013-08-21 05:04:00,55.8,55.2,29.99,West,281,0.0,0.0,98,0.00,,---,0.00,VWS V13.01,2013-08-21 09:04:00,
2013-08-21 05:09:00,55.8,55.2,29.99,West,281,0.0,1.0,98,0.00,,---,0.00,VWS V13.01,2013-08-21 09:09:00,
2013-08-21 05:14:00,55.8,55.5,29.99,West,281,0.0,1.0,99,0.00,,---,0.00,VWS V13.01,2013-08-21 09:14:00,
2013-08-21 05:19:00,55.7,55.4,29.99,West,281,0.0,1.0,99,0.00,,---,0.00,VWS V13.01,2013-08-21 09:19:00,
2013-08-21 05:24:00,55.8,55.5,29.99,West,281,0.0,1.0,99,0.00,,---,0.00,VWS V13.01,2013-08-21 09:24:00,
2013-08-21 05:29:00,55.7,55.4,29.99,West,281,0.0,1.0,99,0.00,,---,0.00,VWS V13.01,2013-08-21 09:29:00,
2013-08-21 05:34:00,55.6,55.3,29.99,West,281,0.0,0.0,99,0.00,,---,0.00,VWS V13.01,2013-08-21 09:34:00,
2013-08-21 05:39:00,55.6,55.3,29.99,West,281,0.0,0.0,99,0.00,,---,0.00,VWS V13.01,2013-08-21 09:39:00,
2013-08-21 05:45:00,55.6,55.3,29.99,West,280,0.0,0.0,99,0.00,,---,0.00,VWS V13.01,2013-08-21 09:45:00,
2013-08-21 05:50:00,55.6,55.3,30.00,West,280,0.0,1.0,99,0.00,,---,0.00,VWS V13.01,2013-08-21 09:50:00,
2013-08-21 05:55:00,55.5,55.2,29.99,West,281,0.0,1.0,99,0.00,,---,0.00,VWS V13.01,2013-08-21 09:55:00,
2013-08-21 06:00:00,55.6,55.3,30.00,West,281,0.0,1.0,99,0.00,,---,0.00,VWS V13.01,2013-08-21 10:00:00,
2013-08-21 06:05:00,55.5,55.2,30.00,West,281,0.0,0.0,99,0.00,,---,0.00,VWS V13.01,2013-08-21 10:05:00,
2013-08-21 06:10:00,55.5,55.2,30.00,West,280,0.0,1.0,99,0.00,,---,0.00,VWS V13.01,2013-08-21 10:10:00,
2013-08-21 06:15:00,55.5,55.2,30.00,West,281,0.0,1.0,99,0.00,,---,0.00,VWS V13.01,2013-08-21 10:15:00,
2013-08-21 06:20:00,55.5,55.2,30.00,West,281,0.0,1.0,99,0.00,,---,0.00,VWS V13.01,2013-08-21 10:20:00,
2013-08-21 06:25:00,55.3,55.0,30.00,West,280,0.0,1.0,99,0.00,,---,0.00,VWS V13.01,2013-08-21 10:25:00,
2013-08-21 06:30:00,55.3,55.0,30.00,West,280,0.0,0.0,99,0.00,,---,0.00,VWS V13.01,2013-08-21 10:30:00,
2013-08-21 06:35:00,55.3,55.0,30.01,West,281,0.0,0.0,99,0.00,,---,0.00,VWS V13.01,2013-08-21 10:35:00,
2013-08-21 06:40:00,55.1,54.8,30.01,West,280,0.0,0.0,99,0.00,,---,0.00,VWS V13.01,2013-08-21 10:40:00,
2013-08-21 06:45:00,55.1,54.8,30.01,West,281,0.0,0.0,99,0.00,,---,0.00,VWS V13.01,2013-08-21 10:45:00,
2013-08-21 06:50:00,55.0,54.7,30.01,West,280,0.0,1.0,99,0.00,,---,0.00,VWS V13.01,2013-08-21 10:50:00,
2013-08-21 06:55:00,55.0,54.7,30.01,West,281,0.0,1.0,99,0.00,,---,0.00,VWS V13.01,2013-08-21 10:55:00,
2013-08-21 07:00:00,54.9,54.6,30.01,West,281,0.0,0.0,99,0.00,,---,0.00,VWS V13.01,2013-08-21 11:00:00,
2013-08-21 07:05:00,55.0,54.7,30.01,West,281,0.0,0.0,99,0.00,,---,0.00,VWS V13.01,2013-08-21 11:05:00,
2013-08-21 07:10:00,55.0,54.7,30.01,West,281,0.0,1.0,99,0.00,,---,0.00,VWS V13.01,2013-08-21 11:10:00,
2013-08-21 07:15:00,55.0,54.7,30.01,West,281,0.0,1.0,99,0.00,,---,0.00,VWS V13.01,2013-08-21 11:15:00,
2013-08-21 07:20:00,55.0,54.7,30.01,West,280,0.0,1.0,99,0.00,,---,0.00,VWS V13.01,2013-08-21 11:20:00,
2013-08-21 07:25:00,55.1,54.8,30.01,West,281,0.0,1.0,99,0.00,,---,0.00,VWS V13.01,2013-08-21 11:25:00,
2013-08-21 07:30:00,55.0,54.7,30.01,West,280,0.0,0.0,99,0.00,,---,0.00,VWS V13.01,2013-08-21 11:30:00,
2013-08-21 07:35:00,54.9,54.6,30.02,West,281,0.0,0.0,99,0.00,,---,0.00,VWS V13.01,2013-08-21 11:35:00,
2013-08-21 07:40:00,54.9,54.6,30.02,West,281,0.0,1.0,99,0.00,,---,0.00,VWS V13.01,2013-08-21 11:40:00,
2013-08-21 07:45:00,54.9,54.6,30.02,West,281,0.0,1.0,99,0.00,,---,0.00,VWS V13.01,2013-08-21 11:45:00,
2013-08-21 07:50:00,55.0,54.7,30.02,West,281,0.0,1.0,99,0.00,,---,0.00,VWS V13.01,2013-08-21 11:50:00,
2013-08-21 07:55:00,55.1,54.8,30.03,West,280,0.0,1.0,99,0.00,,---,0.00,VWS V13.01,2013-08-21 11:55:00,
2013-08-21 08:01:00,55.2,54.9,30.02,West,281,0.0,1.0,99,0.00,,---,0.00,VWS V13.01,2013-08-21 12:01:00,
2013-08-21 08:06:00,55.1,54.8,30.02,West,280,0.0,1.0,99,0.00,,---,0.00,VWS V13.01,2013-08-21 12:06:00,
2013-08-21 08:11:00,55.3,55.0,30.02,West,281,0.0,1.0,99,0.00,,---,0.00,VWS V13.01,2013-08-21 12:11:00,
2013-08-21 08:16:00,55.4,55.1,30.02,West,281,0.0,1.0,99,0.00,,---,0.00,VWS V13.01,2013-08-21 12:16:00,
2013-08-21 08:21:00,55.6,55.3,30.02,West,280,0.0,1.0,99,0.00,,---,0.00,VWS V13.01,2013-08-21 12:21:00,
2013-08-21 08:26:00,55.8,55.5,30.02,West,280,0.0,1.0,99,0.00,,---,0.00,VWS V13.01,2013-08-21 12:26:00,
2013-08-21 08:31:00,56.1,55.8,30.02,West,281,0.0,0.0,99,0.00,,---,0.00,VWS V13.01,2013-08-21 12:31:00,
2013-08-21 08:36:00,56.2,55.9,30.03,West,281,0.0,0.0,99,0.00,,---,0.00,VWS V13.01,2013-08-21 12:36:00,
2013-08-21 08:41:00,56.3,56.0,30.03,West,281,0.0,0.0,99,0.00,,---,0.00,VWS V13.01,2013-08-21 12:41:00,
2013-08-21 08:46:00,56.6,56.3,30.03,West,280,0.0,1.0,99,0.00,,---,0.00,VWS V13.01,2013-08-21 12:46:00,
2013-08-21 08:51:00,56.7,56.4,30.03,West,281,0.0,1.0,99,0.00,,---,0.00,VWS V13.01,2013-08-21 12:51:00,
2013-08-21 08:56:00,56.9,56.6,30.03,West,280,0.0,1.0,99,0.00,,---,0.00,VWS V13.01,2013-08-21 12:56:00,
2013-08-21 09:01:00,57.2,56.9,30.03,West,281,0.0,0.0,99,0.00,,---,0.00,VWS V13.01,2013-08-21 13:01:00,
2013-08-21 09:06:00,57.4,57.1,30.02,West,281,0.0,1.0,99,0.00,,---,0.00,VWS V13.01,2013-08-21 13:06:00,
2013-08-21 09:11:00,57.8,57.5,30.02,West,281,0.0,1.0,99,0.00,,---,0.00,VWS V13.01,2013-08-21 13:11:00,
2013-08-21 09:16:00,58.1,57.8,30.02,West,281,0.0,1.0,99,0.00,,---,0.00,VWS V13.01,2013-08-21 13:16:00,
2013-08-21 09:21:00,58.3,58.0,30.02,West,281,0.0,1.0,99,0.00,,---,0.00,VWS V13.01,2013-08-21 13:21:00,
2013-08-21 09:26:00,58.3,58.0,30.02,West,281,0.0,1.0,99,0.00,,---,0.00,VWS V13.01,2013-08-21 13:26:00,
2013-08-21 09:31:00,58.3,58.0,30.02,West,281,0.0,0.0,99,0.00,,---,0.00,VWS V13.01,2013-08-21 13:31:00,
2013-08-21 09:36:00,58.3,58.0,30.02,West,281,0.0,0.0,99,0.00,,---,0.00,VWS V13.01,2013-08-21 13:36:00,
2013-08-21 09:41:00,58.3,58.0,30.03,West,281,0.0,0.0,99,0.00,,---,0.00,VWS V13.01,2013-08-21 13:41:00,
2013-08-21 09:46:00,58.3,58.0,30.03,West,281,0.0,1.0,99,0.00,,---,0.00,VWS V13.01,2013-08-21 13:46:00,
2013-08-21 09:51:00,58.3,58.0,30.02,West,281,0.0,1.0,99,0.00,,---,0.00,VWS V13.01,2013-08-21 13:51:00,
2013-08-21 09:56:00,58.3,58.0,30.02,West,281,0.0,1.0,99,0.00,,---,0.00,VWS V13.01,2013-08-21 13:56:00,
2013-08-21 10:01:00,58.3,58.0,30.02,West,281,0.0,0.0,99,0.00,,---,0.00,VWS V13.01,2013-08-21 14:01:00,
2013-08-21 10:06:00,58.3,58.0,30.03,West,281,0.0,1.0,99,0.00,,---,0.00,VWS V13.01,2013-08-21 14:06:00,
2013-08-21 10:11:00,58.3,58.0,30.02,West,281,0.0,1.0,99,0.00,,---,0.00,VWS V13.01,2013-08-21 14:11:00,
2013-08-21 10:16:00,58.3,-90.1,30.02,West,281,0.0,1.0,99,0.00,,---,0.00,VWS V13.01,2013-08-21 14:16:00,
2013-08-21 10:21:00,58.3,-90.1,30.02,West,281,0.0,1.0,99,0.00,,---,0.00,VWS V13.01,2013-08-21 14:21:00,
2013-08-21 10:27:00,58.3,-90.1,30.02,West,281,0.0,1.0,99,0.00,,---,0.00,VWS V13.01,2013-08-21 14:27:00,
2013-08-21 10:32:00,58.3,-90.1,30.02,West,281,0.0,0.0,99,0.00,,---,0.00,VWS V13.01,2013-08-21 14:32:00,
2013-08-21 10:37:00,58.3,-90.1,30.02,West,281,0.0,1.0,99,0.00,,---,0.00,VWS V13.01,2013-08-21 14:37:00,
2013-08-21 10:42:00,58.3,-90.1,30.02,West,281,0.0,1.0,99,0.00,,---,0.00,VWS V13.01,2013-08-21 14:42:00,
2013-08-21 10:47:00,58.3,-90.1,30.03,West,281,0.0,2.0,99,0.00,,---,0.00,VWS V13.01,2013-08-21 14:47:00,
2013-08-21 10:52:00,58.3,-90.1,30.03,West,281,0.0,2.0,99,0.00,,---,0.00,VWS V13.01,2013-08-21 14:52:00,
2013-08-21 10:57:00,58.3,-90.1,30.03,West,281,0.0,2.0,99,0.00,,---,0.00,VWS V13.01,2013-08-21 14:57:00,
2013-08-21 11:02:00,58.3,-90.1,30.03,West,281,0.0,0.0,99,0.00,,---,0.00,VWS V13.01,2013-08-21 15:02:00,
2013-08-21 11:07:00,58.3,-92.5,30.03,West,281,0.0,0.0,82,0.00,,---,0.00,VWS V13.01,2013-08-21 15:07:00,
2013-08-21 11:12:00,75.6,69.0,30.03,West,281,0.0,1.0,80,0.00,,---,0.00,VWS V13.01,2013-08-21 15:12:00,
2013-08-21 11:17:00,76.7,68.6,30.03,West,280,0.0,1.0,76,0.00,,---,0.00,VWS V13.01,2013-08-21 15:17:00,
2013-08-21 11:22:00,77.5,69.3,30.03,West,281,0.0,1.0,76,0.00,,---,0.00,VWS V13.01,2013-08-21 15:22:00,
2013-08-21 11:27:00,78.0,69.8,30.03,West,280,0.0,1.0,76,0.00,,---,0.00,VWS V13.01,2013-08-21 15:27:00,
2013-08-21 11:32:00,78.4,69.0,30.03,West,281,0.0,0.0,73,0.00,,---,0.00,VWS V13.01,2013-08-21 15:32:00,
2013-08-21 11:37:00,78.8,67.4,30.03,West,280,0.0,5.0,68,0.00,,---,0.00,VWS V13.01,2013-08-21 15:37:00,
2013-08-21 11:42:00,78.9,66.6,30.03,West,281,1.0,5.0,66,0.00,,---,0.00,VWS V13.01,2013-08-21 15:42:00,
2013-08-21 11:47:00,78.5,65.8,30.03,West,281,5.0,7.0,65,0.00,,---,0.00,VWS V13.01,2013-08-21 15:47:00,
2013-08-21 11:52:00,78.5,65.8,30.03,West,281,6.0,7.0,65,0.00,,---,0.00,VWS V13.01,2013-08-21 15:52:00,
2013-08-21 11:57:00,78.9,66.6,30.02,West,279,0.0,7.0,66,0.00,,---,0.00,VWS V13.01,2013-08-21 15:57:00,
2013-08-21 12:02:00,78.0,68.2,30.02,West,279,0.0,1.0,72,0.00,,---,0.00,VWS V13.01,2013-08-21 16:02:00,
2013-08-21 12:07:00,77.8,67.2,30.02,West,277,0.0,1.0,70,0.00,,---,0.00,VWS V13.01,2013-08-21 16:07:00,
2013-08-21 12:12:00,78.4,66.6,30.02,West,278,5.0,6.0,67,0.00,,---,0.00,VWS V13.01,2013-08-21 16:12:00,
2013-08-21 12:17:00,78.8,64.7,30.02,WNW,286,1.0,9.0,62,0.00,,---,0.00,VWS V13.01,2013-08-21 16:17:00,
2013-08-21 12:22:00,78.7,64.6,30.01,WNW,286,0.0,9.0,62,0.00,,---,0.00,VWS V13.01,2013-08-21 16:22:00,
2013-08-21 12:27:00,79.2,66.0,30.01,WNW,286,4.0,9.0,64,0.00,,---,0.00,VWS V13.01,2013-08-21 16:27:00,
2013-08-21 12:32:00,80.1,65.9,30.01,WNW,286,0.0,6.0,62,0.00,,---,0.00,VWS V13.01,2013-08-21 16:32:00,
2013-08-21 12:37:00,80.4,65.7,30.01,WNW,297,0.0,6.0,61,0.00,,---,0.00,VWS V13.01,2013-08-21 16:37:00,
2013-08-21 12:42:00,80.6,65.9,30.01,WNW,296,6.0,7.0,61,0.00,,---,0.00,VWS V13.01,2013-08-21 16:42:00,
2013-08-21 12:47:00,79.9,65.7,30.01,WNW,298,4.0,7.0,62,0.00,,---,0.00,VWS V13.01,2013-08-21 16:47:00,
2013-08-21 12:52:00,80.1,66.4,30.00,WNW,298,0.0,7.0,63,0.00,,---,0.00,VWS V13.01,2013-08-21 16:52:00,
2013-08-21 12:58:00,80.7,67.4,30.00,WNW,298,0.0,7.0,64,0.00,,---,0.00,VWS V13.01,2013-08-21 16:58:00,
2013-08-21 13:03:00,80.3,65.2,30.00,West,264,0.0,7.0,60,0.00,,---,0.00,VWS V13.01,2013-08-21 17:03:00,
2013-08-21 13:08:00,79.7,64.1,30.00,West,264,0.0,7.0,59,0.00,,---,0.00,VWS V13.01,2013-08-21 17:08:00,
2013-08-21 13:13:00,80.4,66.2,30.00,West,263,5.0,8.0,62,0.00,,---,0.00,VWS V13.01,2013-08-21 17:13:00,
2013-08-21 13:18:00,81.0,65.8,30.00,West,263,0.0,8.0,60,0.00,,---,0.00,VWS V13.01,2013-08-21 17:18:00,
2013-08-21 13:23:00,81.4,64.2,30.00,West,264,3.0,13.0,56,0.00,,---,0.00,VWS V13.01,2013-08-21 17:23:00,
2013-08-21 13:28:00,81.6,64.9,30.00,West,264,2.0,13.0,57,0.00,,---,0.00,VWS V13.01,2013-08-21 17:28:00,
2013-08-21 13:33:00,82.1,66.4,29.99,West,264,4.0,5.0,59,0.00,,---,0.00,VWS V13.01,2013-08-21 17:33:00,
2013-08-21 13:38:00,82.3,64.5,29.99,West,264,0.0,5.0,55,0.00,,---,0.00,VWS V13.01,2013-08-21 17:38:00,
2013-08-21 13:43:00,82.7,64.4,29.99,West,264,0.0,5.0,54,0.00,,---,0.00,VWS V13.01,2013-08-21 17:43:00,
2013-08-21 13:48:00,83.5,65.1,29.99,West,264,2.0,5.0,54,0.00,,---,0.00,VWS V13.01,2013-08-21 17:48:00,
2013-08-21 13:53:00,83.6,64.7,29.98,West,272,2.0,6.0,53,0.00,,---,0.00,VWS V13.01,2013-08-21 17:53:00,
2013-08-21 13:58:00,83.7,65.3,29.98,West,277,5.0,7.0,54,0.00,,---,0.00,VWS V13.01,2013-08-21 17:58:00,
2013-08-21 14:03:00,83.6,65.7,29.98,West,277,2.0,5.0,55,0.00,,---,0.00,VWS V13.01,2013-08-21 18:03:00,
2013-08-21 14:08:00,83.5,64.6,29.97,WNW,284,2.0,6.0,53,0.00,,---,0.00,VWS V13.01,2013-08-21 18:08:00,
2013-08-21 14:13:00,83.1,63.7,29.97,West,276,0.0,8.0,52,0.00,,---,0.00,VWS V13.01,2013-08-21 18:13:00,
2013-08-21 14:18:00,83.1,65.3,29.97,WNW,286,6.0,8.0,55,0.00,,---,0.00,VWS V13.01,2013-08-21 18:18:00,
2013-08-21 14:23:00,82.1,62.8,29.97,WNW,289,0.0,8.0,52,0.00,,---,0.00,VWS V13.01,2013-08-21 18:23:00,
2013-08-21 14:28:00,82.0,66.3,29.98,WNW,289,2.0,8.0,59,0.00,,---,0.00,VWS V13.01,2013-08-21 18:28:00,
2013-08-21 14:33:00,81.3,67.5,29.97,WNW,288,4.0,5.0,63,0.00,,---,0.00,VWS V13.01,2013-08-21 18:33:00,
2013-08-21 14:38:00,81.8,66.6,29.97,WNW,289,2.0,5.0,60,0.00,,---,0.00,VWS V13.01,2013-08-21 18:38:00,
2013-08-21 14:43:00,82.7,63.8,29.97,WNW,284,0.0,6.0,53,0.00,,---,0.00,VWS V13.01,2013-08-21 18:43:00,
2013-08-21 14:48:00,83.4,62.8,29.97,WNW,285,0.0,6.0,50,0.00,,---,0.00,VWS V13.01,2013-08-21 18:48:00,
2013-08-21 14:53:00,84.1,63.5,29.97,West,260,0.0,6.0,50,0.00,,---,0.00,VWS V13.01,2013-08-21 18:53:00,
2013-08-21 14:58:00,84.3,65.3,29.96,West,263,4.0,6.0,53,0.00,,---,0.00,VWS V13.01,2013-08-21 18:58:00,
2013-08-21 15:04:00,83.8,63.8,29.96,West,265,4.0,7.0,51,0.00,,---,0.00,VWS V13.01,2013-08-21 19:04:00,
2013-08-21 15:09:00,82.5,63.1,29.96,West,265,0.0,7.0,52,0.00,,---,0.00,VWS V13.01,2013-08-21 19:09:00,
2013-08-21 15:14:00,82.1,64.9,29.96,West,265,2.0,7.0,56,0.00,,---,0.00,VWS V13.01,2013-08-21 19:14:00,
2013-08-21 15:19:00,82.1,65.9,29.95,West,265,1.0,7.0,58,0.00,,---,0.00,VWS V13.01,2013-08-21 19:19:00,
2013-08-21 15:24:00,82.1,66.4,29.95,West,265,0.0,7.0,59,0.00,,---,0.00,VWS V13.01,2013-08-21 19:24:00,
2013-08-21 15:29:00,82.6,65.3,29.95,West,265,0.0,7.0,56,0.00,,---,0.00,VWS V13.01,2013-08-21 19:29:00,
2013-08-21 15:34:00,81.8,68.4,29.95,West,265,2.0,4.0,64,0.00,,---,0.00,VWS V13.01,2013-08-21 19:34:00,
2013-08-21 15:39:00,79.4,68.3,29.94,West,265,0.0,4.0,69,0.00,,---,0.00,VWS V13.01,2013-08-21 19:39:00,
2013-08-21 15:44:00,78.0,68.7,29.94,West,265,1.0,4.0,73,0.00,,---,0.00,VWS V13.01,2013-08-21 19:44:00,
2013-08-21 15:49:00,78.6,65.0,29.94,West,265,2.0,4.0,63,0.00,,---,0.00,VWS V13.01,2013-08-21 19:49:00,
2013-08-21 15:54:00,80.5,65.3,29.94,West,265,0.0,4.0,60,0.00,,---,0.00,VWS V13.01,2013-08-21 19:54:00,
2013-08-21 15:59:00,82.0,63.7,29.94,West,265,0.0,4.0,54,0.00,,---,0.00,VWS V13.01,2013-08-21 19:59:00,
2013-08-21 16:04:00,83.7,63.7,29.93,West,265,0.0,0.0,51,0.00,,---,0.00,VWS V13.01,2013-08-21 20:04:00,
2013-08-21 16:09:00,84.3,65.3,29.93,West,265,6.0,7.0,53,0.00,,---,0.00,VWS V13.01,2013-08-21 20:09:00,
2013-08-21 16:14:00,83.3,64.4,29.93,West,265,4.0,7.0,53,0.00,,---,0.00,VWS V13.01,2013-08-21 20:14:00,
2013-08-21 16:19:00,81.8,66.6,29.93,West,265,1.0,7.0,60,0.00,,---,0.00,VWS V13.01,2013-08-21 20:19:00,
2013-08-21 16:24:00,80.9,68.5,29.93,West,265,2.0,7.0,66,0.00,,---,0.00,VWS V13.01,2013-08-21 20:24:00,
2013-08-21 16:29:00,79.5,68.4,29.92,West,265,0.0,7.0,69,0.00,,---,0.00,VWS V13.01,2013-08-21 20:29:00,
2013-08-21 16:34:00,79.3,68.7,29.92,West,265,0.0,1.0,70,0.00,,---,0.00,VWS V13.01,2013-08-21 20:34:00,
2013-08-21 16:39:00,80.5,64.9,29.92,West,265,0.0,1.0,59,0.00,,---,0.00,VWS V13.01,2013-08-21 20:39:00,
2013-08-21 16:44:00,82.2,66.0,29.91,West,265,0.0,1.0,58,0.00,,---,0.00,VWS V13.01,2013-08-21 20:44:00,
2013-08-21 16:49:00,83.9,63.3,29.91,West,265,0.0,1.0,50,0.00,,---,0.00,VWS V13.01,2013-08-21 20:49:00,
2013-08-21 16:54:00,85.3,64.6,29.91,West,265,0.0,1.0,50,0.00,,---,0.00,VWS V13.01,2013-08-21 20:54:00,
2013-08-21 16:59:00,85.9,67.9,29.91,West,265,0.0,1.0,55,0.00,,---,0.00,VWS V13.01,2013-08-21 20:59:00,
2013-08-21 17:05:00,86.2,67.1,29.91,West,265,0.0,1.0,53,0.00,,---,0.00,VWS V13.01,2013-08-21 21:05:00,
2013-08-21 17:10:00,86.2,64.8,29.91,West,265,0.0,2.0,49,0.00,,---,0.00,VWS V13.01,2013-08-21 21:10:00,
2013-08-21 17:15:00,85.9,64.0,29.91,West,265,0.0,2.0,48,0.00,,---,0.00,VWS V13.01,2013-08-21 21:15:00,
2013-08-21 17:20:00,85.2,68.8,29.91,West,265,0.0,2.0,58,0.00,,---,0.00,VWS V13.01,2013-08-21 21:20:00,
2013-08-21 17:25:00,84.6,67.2,29.90,West,265,0.0,4.0,56,0.00,,---,0.00,VWS V13.01,2013-08-21 21:25:00,
2013-08-21 17:30:00,84.3,68.9,29.90,West,265,2.0,5.0,60,0.00,,---,0.00,VWS V13.01,2013-08-21 21:30:00,
2013-08-21 17:35:00,83.9,64.4,29.90,West,265,4.0,7.0,52,0.00,,---,0.00,VWS V13.01,2013-08-21 21:35:00,
2013-08-21 17:40:00,83.0,65.2,29.90,West,265,1.0,7.0,55,0.00,,---,0.00,VWS V13.01,2013-08-21 21:40:00,
2013-08-21 17:45:00,82.8,68.0,29.90,West,265,1.0,7.0,61,0.00,,---,0.00,VWS V13.01,2013-08-21 21:45:00,
2013-08-21 17:50:00,82.6,67.3,29.90,West,265,2.0,7.0,60,0.00,,---,0.00,VWS V13.01,2013-08-21 21:50:00,
2013-08-21 17:55:00,82.6,65.8,29.89,West,265,0.0,7.0,57,0.00,,---,0.00,VWS V13.01,2013-08-21 21:55:00,
2013-08-21 18:00:00,82.2,69.3,29.89,West,265,0.0,0.0,65,0.00,,---,0.00,VWS V13.01,2013-08-21 22:00:00,
2013-08-21 18:05:00,80.5,69.0,29.90,West,265,0.0,1.0,68,0.00,,---,0.00,VWS V13.01,2013-08-21 22:05:00,
2013-08-21 18:10:00,79.4,66.6,29.90,West,265,0.0,1.0,65,0.00,,---,0.00,VWS V13.01,2013-08-21 22:10:00,
2013-08-21 18:15:00,78.7,66.4,29.90,West,265,0.0,1.0,66,0.00,,---,0.00,VWS V13.01,2013-08-21 22:15:00,
2013-08-21 18:20:00,78.4,66.6,29.90,West,265,0.0,1.0,67,0.00,,---,0.00,VWS V13.01,2013-08-21 22:20:00,
2013-08-21 18:25:00,78.5,67.5,29.90,West,265,0.0,1.0,69,0.00,,---,0.00,VWS V13.01,2013-08-21 22:25:00,
2013-08-21 18:30:00,78.1,67.5,29.90,West,265,0.0,0.0,70,0.00,,---,0.00,VWS V13.01,2013-08-21 22:30:00,
2013-08-21 18:35:00,77.9,67.8,29.90,West,265,0.0,0.0,71,0.00,,---,0.00,VWS V13.01,2013-08-21 22:35:00,
2013-08-21 18:40:00,77.1,67.4,29.90,West,265,0.0,0.0,72,0.00,,---,0.00,VWS V13.01,2013-08-21 22:40:00,
2013-08-21 18:45:00,76.3,67.8,29.89,West,265,0.0,0.0,75,0.00,,---,0.00,VWS V13.01,2013-08-21 22:45:00,
2013-08-21 18:50:00,75.6,67.5,29.89,West,265,0.0,1.0,76,0.00,,---,0.00,VWS V13.01,2013-08-21 22:50:00,
2013-08-21 18:55:00,75.2,67.5,29.89,West,265,0.0,1.0,77,0.00,,---,0.00,VWS V13.01,2013-08-21 22:55:00,
2013-08-21 19:00:00,75.0,68.1,29.88,West,265,0.0,0.0,79,0.00,,---,0.00,VWS V13.01,2013-08-21 23:00:00,
2013-08-21 19:06:00,75.1,67.8,29.88,West,265,0.0,0.0,78,0.00,,---,0.00,VWS V13.01,2013-08-21 23:06:00,
2013-08-21 19:11:00,75.3,68.0,29.88,West,265,0.0,0.0,78,0.00,,---,0.00,VWS V13.01,2013-08-21 23:11:00,
2013-08-21 19:16:00,75.0,66.9,29.88,West,265,0.0,0.0,76,0.00,,---,0.00,VWS V13.01,2013-08-21 23:16:00,
2013-08-21 19:21:00,74.2,66.9,29.88,West,265,0.0,1.0,78,0.00,,---,0.00,VWS V13.01,2013-08-21 23:21:00,
2013-08-21 19:26:00,73.5,67.0,29.88,West,265,0.0,1.0,80,0.00,,---,0.00,VWS V13.01,2013-08-21 23:26:00,
2013-08-21 19:31:00,73.3,67.5,29.88,West,265,0.0,0.0,82,0.00,,---,0.00,VWS V13.01,2013-08-21 23:31:00,
2013-08-21 19:36:00,73.2,67.7,29.89,West,265,0.0,0.0,83,0.00,,---,0.00,VWS V13.01,2013-08-21 23:36:00,
2013-08-21 19:41:00,72.8,67.0,29.89,West,265,0.0,0.0,82,0.00,,---,0.00,VWS V13.01,2013-08-21 23:41:00,
2013-08-21 19:46:00,72.2,66.4,29.89,West,265,0.0,0.0,82,0.00,,---,0.00,VWS V13.01,2013-08-21 23:46:00,
2013-08-21 19:51:00,71.5,65.7,29.89,West,265,0.0,0.0,82,0.00,,---,0.00,VWS V13.01,2013-08-21 23:51:00,
2013-08-21 19:56:00,71.2,66.1,29.89,West,265,0.0,0.0,84,0.00,,---,0.00,VWS V13.01,2013-08-21 23:56:00,
2013-08-21 20:01:00,70.8,66.4,29.89,West,265,0.0,0.0,86,0.00,,---,0.00,VWS V13.01,2013-08-22 00:01:00,
2013-08-21 20:06:00,70.3,66.2,29.89,West,265,0.0,0.0,87,0.00,,---,0.00,VWS V13.01,2013-08-22 00:06:00,
2013-08-21 20:11:00,69.6,64.9,29.89,West,265,0.0,1.0,85,0.00,,---,0.00,VWS V13.01,2013-08-22 00:11:00,
2013-08-21 20:16:00,69.3,64.6,29.89,West,265,0.0,1.0,85,0.00,,---,0.00,VWS V13.01,2013-08-22 00:16:00,
2013-08-21 20:21:00,69.1,65.1,29.89,West,265,0.0,1.0,87,0.00,,---,0.00,VWS V13.01,2013-08-22 00:21:00,
2013-08-21 20:26:00,68.4,64.4,29.90,West,265,0.0,1.0,87,0.00,,---,0.00,VWS V13.01,2013-08-22 00:26:00,
2013-08-21 20:31:00,67.6,64.2,29.90,West,265,0.0,0.0,89,0.00,,---,0.00,VWS V13.01,2013-08-22 00:31:00,
2013-08-21 20:36:00,67.1,64.1,29.90,West,265,0.0,0.0,90,0.00,,---,0.00,VWS V13.01,2013-08-22 00:36:00,
2013-08-21 20:41:00,66.9,64.2,29.90,West,265,0.0,0.0,91,0.00,,---,0.00,VWS V13.01,2013-08-22 00:41:00,
2013-08-21 20:46:00,66.5,63.5,29.90,West,265,0.0,0.0,90,0.00,,---,0.00,VWS V13.01,2013-08-22 00:46:00,
2013-08-21 20:51:00,66.4,63.7,29.89,West,265,0.0,0.0,91,0.00,,---,0.00,VWS V13.01,2013-08-22 00:51:00,
2013-08-21 20:57:00,66.3,63.6,29.89,West,265,0.0,0.0,91,0.00,,---,0.00,VWS V13.01,2013-08-22 00:57:00,
2013-08-21 21:02:00,66.2,63.8,29.89,West,265,0.0,0.0,92,0.00,,---,0.00,VWS V13.01,2013-08-22 01:02:00,
2013-08-21 21:07:00,65.7,63.0,29.89,West,265,0.0,0.0,91,0.00,,---,0.00,VWS V13.01,2013-08-22 01:07:00,
2013-08-21 21:12:00,65.2,62.8,29.89,West,265,0.0,0.0,92,0.00,,---,0.00,VWS V13.01,2013-08-22 01:12:00,
2013-08-21 21:17:00,64.9,62.8,29.90,West,265,0.0,0.0,93,0.00,,---,0.00,VWS V13.01,2013-08-22 01:17:00,
2013-08-21 21:22:00,64.7,62.6,29.89,West,265,0.0,0.0,93,0.00,,---,0.00,VWS V13.01,2013-08-22 01:22:00,
2013-08-21 21:27:00,64.6,62.5,29.89,West,265,0.0,0.0,93,0.00,,---,0.00,VWS V13.01,2013-08-22 01:27:00,
2013-08-21 21:32:00,64.1,62.0,29.90,West,265,0.0,0.0,93,0.00,,---,0.00,VWS V13.01,2013-08-22 01:32:00,
2013-08-21 21:37:00,63.8,61.7,29.90,West,265,0.0,0.0,93,0.00,,---,0.00,VWS V13.01,2013-08-22 01:37:00,
2013-08-21 21:42:00,63.6,61.5,29.90,West,265,0.0,0.0,93,0.00,,---,0.00,VWS V13.01,2013-08-22 01:42:00,
2013-08-21 21:47:00,63.2,61.5,29.89,West,265,0.0,0.0,94,0.00,,---,0.00,VWS V13.01,2013-08-22 01:47:00,
2013-08-21 21:52:00,63.1,61.3,29.90,West,264,0.0,0.0,94,0.00,,---,0.00,VWS V13.01,2013-08-22 01:52:00,
2013-08-21 21:57:00,63.0,61.2,29.89,West,265,0.0,0.0,94,0.00,,---,0.00,VWS V13.01,2013-08-22 01:57:00,
2013-08-21 22:02:00,63.0,61.5,29.90,West,265,0.0,0.0,95,0.00,,---,0.00,VWS V13.01,2013-08-22 02:02:00,
2013-08-21 22:07:00,62.8,61.3,29.90,West,265,0.0,0.0,95,0.00,,---,0.00,VWS V13.01,2013-08-22 02:07:00,
2013-08-21 22:12:00,62.7,61.2,29.90,West,265,0.0,0.0,95,0.00,,---,0.00,VWS V13.01,2013-08-22 02:12:00,
2013-08-21 22:17:00,62.5,61.0,29.90,West,265,0.0,0.0,95,0.00,,---,0.00,VWS V13.01,2013-08-22 02:17:00,
2013-08-21 22:22:00,62.4,61.0,29.90,West,265,0.0,0.0,95,0.00,,---,0.00,VWS V13.01,2013-08-22 02:22:00,
2013-08-21 22:27:00,62.5,61.0,29.90,West,265,0.0,0.0,95,0.00,,---,0.00,VWS V13.01,2013-08-22 02:27:00,
2013-08-21 22:32:00,62.5,61.0,29.90,West,265,0.0,0.0,95,0.00,,---,0.00,VWS V13.01,2013-08-22 02:32:00,
2013-08-21 22:37:00,62.3,60.8,29.90,West,265,0.0,0.0,95,0.00,,---,0.00,VWS V13.01,2013-08-22 02:37:00,
2013-08-21 22:42:00,62.2,60.8,29.91,West,265,0.0,0.0,95,0.00,,---,0.00,VWS V13.01,2013-08-22 02:42:00,
2013-08-21 22:47:00,62.3,61.2,29.91,West,264,0.0,0.0,96,0.00,,---,0.00,VWS V13.01,2013-08-22 02:47:00,
2013-08-21 22:53:00,62.3,61.2,29.91,West,265,0.0,0.0,96,0.00,,---,0.00,VWS V13.01,2013-08-22 02:53:00,
2013-08-21 22:58:00,62.3,61.2,29.91,West,265,0.0,0.0,96,0.00,,---,0.00,VWS V13.01,2013-08-22 02:58:00,
2013-08-21 23:03:00,62.2,61.0,29.91,West,265,0.0,0.0,96,0.00,,---,0.00,VWS V13.01,2013-08-22 03:03:00,
2013-08-21 23:08:00,62.1,61.0,29.91,West,265,0.0,0.0,96,0.00,,---,0.00,VWS V13.01,2013-08-22 03:08:00,
2013-08-21 23:13:00,62.0,60.8,29.91,West,265,0.0,0.0,96,0.00,,---,0.00,VWS V13.01,2013-08-22 03:13:00,
2013-08-21 23:18:00,61.9,60.8,29.91,West,265,0.0,0.0,96,0.00,,---,0.00,VWS V13.01,2013-08-22 03:18:00,
2013-08-21 23:23:00,62.0,60.8,29.91,West,265,0.0,0.0,96,0.00,,---,0.00,VWS V13.01,2013-08-22 03:23:00,
2013-08-21 23:28:00,62.0,60.8,29.91,West,265,0.0,0.0,96,0.00,,---,0.00,VWS V13.01,2013-08-22 03:28:00,
2013-08-21 23:33:00,62.0,60.8,29.91,West,265,0.0,0.0,96,0.00,,---,0.00,VWS V13.01,2013-08-22 03:33:00,
2013-08-21 23:38:00,62.0,60.8,29.91,West,265,0.0,0.0,96,0.00,,---,0.00,VWS V13.01,2013-08-22 03:38:00,
2013-08-21 23:43:00,62.0,60.8,29.91,West,265,0.0,0.0,96,0.00,,---,0.00,VWS V13.01,2013-08-22 03:43:00,
2013-08-21 23:48:00,61.9,60.8,29.90,West,265,0.0,0.0,96,0.00,,---,0.00,VWS V13.01,2013-08-22 03:48:00,
2013-08-21 23:53:00,61.8,60.7,29.90,West,265,0.0,0.0,96,0.00,,---,0.00,VWS V13.01,2013-08-22 03:53:00,
2013-08-21 23:58:00,61.5,60.3,29.90,West,265,0.0,0.0,96,0.00,,---,0.00,VWS V13.01,2013-08-22 03:58:00,